• In Schweiz
  • Länderverzeichnis
  • Für 7 Tage
  • Wassertemperatur
  • Satellitenkarten
  • Wetterkarte
  • Widgets
  • user-avatar
    Anmelden

    Stündliche Wetter Bartym

    Heute, 21 September, Freitag

    Zeit Temperatur Niederschläge Wind Luftdruck Luftfeuchtigkeit
    00:00 +8°C° 0.1 mm 2 m/S 724 mmHg 97%
    01:00 +8°C° 0.1 mm 2 m/S 724 mmHg 97%
    02:00 +8°C° 0.1 mm 2 m/S 724 mmHg 97%
    03:00 +8°C° 0.1 mm 2 m/S 724 mmHg 97%
    04:00 +8°C° 0.1 mm 2 m/S 724 mmHg 97%
    05:00 +8°C° 0.1 mm 3 m/S 725 mmHg 96%
    06:00 +8°C° 0.1 mm 3 m/S 725 mmHg 96%
    07:00 +8°C° 0.1 mm 3 m/S 725 mmHg 96%
    08:00 +8°C° 0 mm 3 m/S 726 mmHg 95%
    09:00 +8°C° 0 mm 4 m/S 726 mmHg 93%
    10:00 +8°C° 0 mm 4 m/S 726 mmHg 92%
    11:00 +8°C° 0 mm 4 m/S 727 mmHg 91%
    12:00 +10°C° 0 mm 4 m/S 727 mmHg 89%
    13:00 +10°C° 0 mm 4 m/S 728 mmHg 88%
    14:00 +10°C° 0 mm 4 m/S 728 mmHg 88%
    15:00 +10°C° 0 mm 4 m/S 728 mmHg 88%
    16:00 +10°C° 0 mm 4 m/S 728 mmHg 88%
    17:00 +9°C° 0 mm 3 m/S 729 mmHg 89%
    18:00 +9°C° 0 mm 3 m/S 729 mmHg 91%
    19:00 +8°C° 0 mm 3 m/S 730 mmHg 92%
    20:00 +8°C° 0 mm 3 m/S 730 mmHg 92%
    21:00 +8°C° 0 mm 2 m/S 730 mmHg 93%
    22:00 +8°C° 0 mm 2 m/S 731 mmHg 93%
    23:00 +8°C° 0 mm 2 m/S 731 mmHg 93%

    Morgen, 22 September, Samstag

    Zeit Temperatur Niederschläge Wind Luftdruck Luftfeuchtigkeit
    00:00 +8°C° 0 mm 2 m/S 731 mmHg 94%
    01:00 +8°C° 0 mm 2 m/S 731 mmHg 94%
    02:00 +8°C° 0 mm 2 m/S 732 mmHg 95%
    03:00 +7°C° 0 mm 2 m/S 732 mmHg 95%
    04:00 +7°C° 0 mm 2 m/S 732 mmHg 95%
    05:00 +7°C° 0 mm 2 m/S 732 mmHg 94%
    06:00 +6°C° 0 mm 2 m/S 733 mmHg 94%
    07:00 +6°C° 0 mm 2 m/S 733 mmHg 94%
    08:00 +7°C° 0 mm 2 m/S 733 mmHg 87%
    09:00 +9°C° 0 mm 3 m/S 733 mmHg 80%
    10:00 +10°C° 0 mm 3 m/S 734 mmHg 73%
    11:00 +11°C° 0 mm 3 m/S 734 mmHg 73%
    12:00 +13°C° 0 mm 3 m/S 734 mmHg 73%
    13:00 +14°C° 0 mm 4 m/S 734 mmHg 73%
    14:00 +14°C° 0 mm 4 m/S 734 mmHg 75%
    15:00 +14°C° 0 mm 3 m/S 734 mmHg 77%
    16:00 +14°C° 0 mm 3 m/S 734 mmHg 80%
    17:00 +14°C° 0.1 mm 3 m/S 734 mmHg 85%
    18:00 +14°C° 0.1 mm 2 m/S 734 mmHg 91%
    19:00 +13°C° 0.1 mm 2 m/S 734 mmHg 96%
    20:00 +13°C° 0.1 mm 2 m/S 734 mmHg 97%
    21:00 +13°C° 0.1 mm 1 m/S 734 mmHg 97%
    22:00 +12°C° 0.1 mm 1 m/S 734 mmHg 98%
    23:00 +12°C° 0.1 mm 1 m/S 734 mmHg 98%

    übermorgen, 23 September, Sonntag

    Zeit Temperatur Niederschläge Wind Luftdruck Luftfeuchtigkeit
    00:00 +12°C° 0.1 mm 1 m/S 734 mmHg 98%
    01:00 +12°C° 0.1 mm 1 m/S 734 mmHg 98%
    02:00 +12°C° 0 mm 1 m/S 734 mmHg 98%
    03:00 +11°C° 0 mm 0 m/S 735 mmHg 97%
    04:00 +11°C° 0 mm 0 m/S 735 mmHg 97%
    05:00 +11°C° 0 mm 0 m/S 735 mmHg 97%
    06:00 +11°C° 0 mm 0 m/S 735 mmHg 97%
    07:00 +11°C° 0 mm 0 m/S 735 mmHg 96%
    08:00 +14°C° 0 mm 1 m/S 735 mmHg 91%
    09:00 +15°C° 0 mm 1 m/S 736 mmHg 85%
    10:00 +16°C° 0 mm 1 m/S 736 mmHg 80%
    11:00 +18°C° 0 mm 1 m/S 736 mmHg 76%
    12:00 +19°C° 0 mm 1 m/S 736 mmHg 72%
    13:00 +20°C° 0 mm 1 m/S 736 mmHg 68%
    14:00 +19°C° 0 mm 1 m/S 735 mmHg 69%
    15:00 +19°C° 0 mm 1 m/S 735 mmHg 71%
    16:00 +19°C° 0 mm 1 m/S 735 mmHg 73%
    17:00 +16°C° 0 mm 1 m/S 735 mmHg 79%
    18:00 +15°C° 0 mm 1 m/S 735 mmHg 85%
    19:00 +13°C° 0 mm 1 m/S 735 mmHg 91%
    20:00 +13°C° 0 mm 1 m/S 735 mmHg 92%
    21:00 +13°C° 0 mm 1 m/S 735 mmHg 93%
    22:00 +12°C° 0 mm 1 m/S 735 mmHg 94%
    23:00 +12°C° 0 mm 1 m/S 735 mmHg 94%

    24 September, Montag

    Zeit Temperatur Niederschläge Wind Luftdruck Luftfeuchtigkeit
    00:00 +12°C° 0 mm 1 m/S 735 mmHg 94%
    01:00 +11°C° 0 mm 1 m/S 734 mmHg 95%
    02:00 +11°C° 0 mm 1 m/S 734 mmHg 95%
    03:00 +11°C° 0 mm 1 m/S 734 mmHg 95%
    04:00 +11°C° 0 mm 1 m/S 734 mmHg 95%
    05:00 +11°C° 0 mm 1 m/S 734 mmHg 95%
    06:00 +11°C° 0 mm 1 m/S 734 mmHg 95%
    07:00 +10°C° 0 mm 2 m/S 734 mmHg 94%
    08:00 +13°C° 0 mm 2 m/S 734 mmHg 88%
    09:00 +15°C° 0 mm 2 m/S 734 mmHg 82%
    10:00 +17°C° 0 mm 2 m/S 734 mmHg 76%
    11:00 +18°C° 0 mm 3 m/S 733 mmHg 73%
    12:00 +19°C° 0 mm 3 m/S 733 mmHg 69%
    13:00 +20°C° 0 mm 3 m/S 733 mmHg 66%
    14:00 +20°C° 0 mm 3 m/S 733 mmHg 66%
    15:00 +20°C° 0 mm 3 m/S 733 mmHg 66%
    16:00 +20°C° 0 mm 3 m/S 733 mmHg 66%
    17:00 +18°C° 0 mm 2 m/S 733 mmHg 73%
    18:00 +16°C° 0 mm 2 m/S 733 mmHg 80%
    19:00 +14°C° 0 mm 1 m/S 733 mmHg 86%
    20:00 +14°C° 0 mm 2 m/S 733 mmHg 86%
    21:00 +13°C° 0 mm 2 m/S 733 mmHg 87%
    22:00 +13°C° 0 mm 2 m/S 733 mmHg 87%
    23:00 +13°C° 0 mm 2 m/S 733 mmHg 87%

    25 September, Dienstag

    Zeit Temperatur Niederschläge Wind Luftdruck Luftfeuchtigkeit
    00:00 +12°C° 0 mm 2 m/S 733 mmHg 87%
    01:00 +12°C° 0 mm 2 m/S 733 mmHg 86%
    02:00 +12°C° 0 mm 2 m/S 733 mmHg 86%
    03:00 +10°C° 0 mm 2 m/S 733 mmHg 85%
    04:00 +10°C° 0 mm 2 m/S 733 mmHg 85%
    05:00 +10°C° 0 mm 2 m/S 733 mmHg 84%
    06:00 +10°C° 0 mm 2 m/S 733 mmHg 83%
    07:00 +10°C° 0 mm 2 m/S 734 mmHg 82%
    08:00 +14°C° 0 mm 2 m/S 734 mmHg 74%
    09:00 +16°C° 0 mm 2 m/S 734 mmHg 66%
    10:00 +18°C° 0 mm 3 m/S 734 mmHg 58%
    11:00 +19°C° 0 mm 3 m/S 734 mmHg 54%
    12:00 +20°C° 0 mm 3 m/S 734 mmHg 50%
    13:00 +21°C° 0 mm 3 m/S 734 mmHg 46%
    14:00 +21°C° 0 mm 3 m/S 734 mmHg 49%
    15:00 +21°C° 0 mm 2 m/S 734 mmHg 52%
    16:00 +20°C° 0 mm 2 m/S 734 mmHg 55%
    17:00 +18°C° 0 mm 2 m/S 734 mmHg 61%
    18:00 +16°C° 0 mm 2 m/S 734 mmHg 66%
    19:00 +14°C° 0 mm 2 m/S 734 mmHg 72%
    20:00 +14°C° 0 mm 2 m/S 734 mmHg 72%
    21:00 +13°C° 0 mm 2 m/S 734 mmHg 72%
    22:00 +12°C° 0 mm 2 m/S 734 mmHg 72%
    23:00 +12°C° 0 mm 2 m/S 734 mmHg 70%

    26 September, Mittwoch

    Zeit Temperatur Niederschläge Wind Luftdruck Luftfeuchtigkeit
    00:00 +10°C° 0 mm 2 m/S 734 mmHg 68%
    01:00 +10°C° 0 mm 2 m/S 734 mmHg 67%
    02:00 +9°C° 0 mm 2 m/S 734 mmHg 67%
    03:00 +9°C° 0 mm 2 m/S 735 mmHg 66%
    04:00 +9°C° 0 mm 2 m/S 735 mmHg 66%
    05:00 +9°C° 0 mm 2 m/S 735 mmHg 67%
    06:00 +8°C° 0 mm 2 m/S 735 mmHg 67%
    07:00 +8°C° 0 mm 2 m/S 735 mmHg 68%
    08:00 +11°C° 0 mm 3 m/S 735 mmHg 61%
    09:00 +13°C° 0 mm 3 m/S 735 mmHg 55%
    10:00 +17°C° 0 mm 4 m/S 735 mmHg 48%
    11:00 +18°C° 0 mm 4 m/S 735 mmHg 45%
    12:00 +19°C° 0 mm 5 m/S 735 mmHg 42%
    13:00 +20°C° 0 mm 5 m/S 735 mmHg 38%
    14:00 +20°C° 0 mm 4 m/S 735 mmHg 42%
    15:00 +19°C° 0 mm 3 m/S 735 mmHg 46%
    16:00 +19°C° 0 mm 3 m/S 735 mmHg 49%
    17:00 +17°C° 0 mm 3 m/S 735 mmHg 55%
    18:00 +14°C° 0 mm 3 m/S 735 mmHg 60%
    19:00 +12°C° 0 mm 3 m/S 735 mmHg 65%
    20:00 +12°C° 0 mm 3 m/S 735 mmHg 65%
    21:00 +12°C° 0 mm 3 m/S 735 mmHg 65%
    22:00 +12°C° 0 mm 3 m/S 735 mmHg 65%
    23:00 +12°C° 0 mm 3 m/S 736 mmHg 64%
    Mehr zeigen